This demonstration page uses our WeatherBlox Daily Observations layout. Learn more.

38.89511, -77.03637

Hourly Observations for November 1, 2017

Temp ( °F °C ) Dew Point ( °F °C ) Humidity (%) Winds ( mph kmh ) Pressure ( in mb ) Visibility ( mi km ) Precip ( " mm )
12:52 am 00:52 Mostly Cloudy 46 7.8 38 3.3 73 73 NNE 6 9 30.24 1024 10 16.09344 0 0
1:52 am 01:52 Partly Cloudy 46 7.8 39 3.9 77 77 NE 9 15 30.24 1024 10 16.09344 0 0
2:52 am 02:52 Cloudy 47 8.3 39 3.9 74 74 ENE 10 17 30.24 1024 10 16.09344 0 0
3:52 am 03:52 Mostly Cloudy 46 7.8 38 3.3 73 73 NNE 7 11 30.24 1024 10 16.09344 0 0
4:52 am 04:52 Cloudy 46 7.8 38 3.3 73 73 N 7 11 30.24 1024 10 16.09344 0 0
5:52 am 05:52 Partly Cloudy 46 7.8 37 2.8 71 71 NE 7 11 30.24 1024 10 16.09344 0 0
6:52 am 06:52 Cloudy 46 7.8 38 3.3 73 73 NNE 7 11 30.24 1024 10 16.09344 0 0
7:52 am 07:52 Cloudy 47 8.3 38 3.3 71 71 NNE 10 17 30.24 1024 10 16.09344 0 0
8:12 am 08:12 Cloudy 47 8.3 38 3.3 71 71 NNE 9 15 30.27 1025 10 16.09344 0 0
8:52 am 08:52 Cloudy 48 8.9 38 3.3 68 68 NNE 8 13 30.27 1025 10 16.09344 0 0
9:12 am 09:12 Cloudy 49 9.4 38 3.3 66 66 NNE 7 11 30.3 1026 10 16.09344 0 0
9:52 am 09:52 Cloudy 50 10 40 4.4 68 68 NE 8 13 30.27 1025 10 16.09344 0 0
10:52 am 10:52 Cloudy 53 11.7 42 5.6 66 66 N 9 15 30.27 1025 10 16.09344 0 0
11:52 am 11:52 Cloudy 55 12.8 43 6.1 64 64 N 6 9 30.27 1025 10 16.09344 0 0
12:27 pm 12:27 Cloudy 56 13.3 44 6.7 65 65 N 3 6 30.27 1025 10 16.09344 0 0
12:52 pm 12:52 Cloudy 57 13.9 45 7.2 64 64 N 5 7 30.24 1024 10 16.09344 0 0
1:52 pm 13:52 Cloudy 59 15 47 8.3 64 64 NNE 5 7 30.21 1023 10 16.09344 0 0
2:52 pm 14:52 Cloudy 63 17.2 50 10 63 63 N 5 7 30.18 1022 10 16.09344 0 0
3:52 pm 15:52 Mostly Cloudy 63 17.2 52 11.1 68 68 NNE 3 6 30.18 1022 10 16.09344 0 0
4:17 pm 16:17 Cloudy 64 17.8 53 11.7 68 68 N 5 7 30.21 1023 10 16.09344 0 0
4:52 pm 16:52 Cloudy 63 17.2 53 11.7 70 70 N 3 6 30.18 1022 10 16.09344 0 0
5:52 pm 17:52 Cloudy with Light Rain 58 14.4 54 12.2 87 87 S 7 11 30.18 1022 10 16.09344 0.001 0.001
6:52 pm 18:52 Mostly Cloudy 60 15.6 53 11.7 78 78 SW 3 6 30.21 1023 10 16.09344 0.001 0.001
7:52 pm 19:52 Mostly Cloudy 59 15 54 12.2 83 83 Calm 30.21 1023 10 16.09344 0.001 0.001
8:52 pm 20:52 Cloudy 57 13.9 54 12.2 90 90 SSE 3 6 30.21 1023 10 16.09344 0 0
9:52 pm 21:52 Mostly Cloudy 56 13.3 55 12.8 97 97 S 5 7 30.21 1023 10 16.09344 0 0
10:52 pm 22:52 Mostly Cloudy 54 12.2 50 10 87 87 N 5 7 30.21 1023 10 16.09344 0 0
11:52 pm 23:52 Cloudy 53 11.7 48 8.9 83 83 N 7 11 30.24 1024 10 16.09344 0 0

Powered by AerisWeather